CZ-6A DEB, 60881

Orbit data source: Space-Track

CZ-6A DEB, 60881 is space debris in LEO originally from a launch on Tue, 06 Aug 2024 UTC launched from the Taiyaun Space Center, China (TSC). Debris objects in space refer to the collection of defunct objects orbiting the Earth. Examples of debris include non-operational satellites, rocket bodies, and fragments generated from explosions, collisions, or faulty payload assembly.

Loading next visibility...
Identifier
60881, 2024-140KL
Orbit
LEO
Country
Flag of CNCN / PRC
Related business
Manufacturer
SAST
Mission
Spacecraft
Bus & Motor
Unknown
Mass
Unknown
Launch date (UTC)
2024-08-06 (2 years ago)
Launch vehicle
Unknown
Launch site
Taiyaun Space Center, China (TSC)
Object type
Payload
Rocket body
Debris
Shape & HBR
Unknown shape, 0.2 m
Radar Cross Section
Medium (>0.1 m² and <1 m²)

Expand to show TLE details & history
Last TLE update: 16 hours ago

TLE from 16 hours ago
0 CZ-6A DEB
1 60881U 24140KL  26171.29899350  .00001115  00000-0  46960-3 0  9992
2 60881  89.0015 273.9517 0034819 160.3562 199.8981 14.24761238 93645
Epoch: 2026-06-20T07:10Z
TLE epoch observation values (Epoch: 2026-06-20T07:10:33.038Z)
Latitude
-0.00004°
Longitude
-102.20157°
Altitude
835.902 km
Speed
7.423 km/s
True Right ascension
18h 15m 48s
True Declination
0° 00' 00"
Sunlit
Object was in full shadow at epoch
Visualization orbit readout
Latitude
Unknown
Longitude
Unknown
Altitude
Unknown
Speed
Unknown
Apparent Right ascension
Unknown
Apparent Declination
Unknown
Sunlit
N/A
Visualization observer readout
Local Sidereal Time
10:20:25
Azimuth
Unknown
Elevation
Unknown
Doppler factor
Unknown
Orbital elements
Apogee altitude
831.255 km
Perigee altitude
781.225 km
Semi-major axis
7,184.377 km
Eccentricity
0.00348
Inclination
89.0015°
RAAN
273.9517°
Arg. of periapsis
160.3562°
True anomaly
199.76286°
Mean anomaly
199.8981°
Eccentric anomaly
199.83042°
Mean motion
3.56418 °/min
Orbital period
101.01 mins
BSTAR
0.0004696
Loading maneuver chart data...
Computing Atmospheric mass density...
Loading historical data...
Loading historical data...
Loading historical data...
Loading historical data...
Loading historical data...
Loading historical data...
Loading historical data...

Documentation

Showing up to 5 results
|